Terminal Aerodrome Forecast
Issued by NWS Wilmington, OH

Current Version | Previous Version | Graphics & Text | Print | Product List | Glossary On
Versions: 1 2 3 4 5 6 7 8 9 10 11 12 13 14
000
FTUS41 KILN 150800 AAA
TAFILN
TAF AMD
KILN 150859Z 1509/1606 33014G22KT 1SM -SN OVC006
     FM151100 34014G22KT 4SM -SN OVC008
     FM151300 33014G22KT P6SM OVC008
     FM151600 33014G20KT P6SM BKN025
     FM151900 32014G20KT P6SM BKN040
     FM152300 32008KT P6SM SCT040
     FM160100 VRB03KT P6SM SKC=

USA.gov is the U.S. government's official web portal to all federal, state and local government web resources and services.